Regional Weather Roundup
Issued by NWS

Home | Current Version | Previous Version | Text Only | Print | Product List | Glossary On
Versions: 1 2 3 4 5 6 7 8 9 10 11 12 13 14 15 16 17 18 19 20 21 22 23 24 25 26 27 28 29 30 31 32 33 34 35 36 37 38 39 40 41 42 43 44 45 46 47 48 49 50
253
ASUS44 KLIX 271705
RWRLA
LOUISIANA WEATHER ROUNDUP
NATIONAL WEATHER SERVICE NEW ORLEANS LA
1200 PM CDT SUN JUL 27 2014

NOTE: "FAIR" INDICATES FEW OR NO CLOUDS BELOW 12,000 FEET WITH NO
      SIGNIFICANT WEATHER AND/OR OBSTRUCTIONS TO VISIBILITY.
      SKY/WX - SKY CONDITION AND SIGNIFICANT WEATHER.
      TMP - AIR TEMPERATURE.    DP   - DEWPOINT TEMPERATURE.
      RH  - RELATIVE HUMIDITY.  PRES - PRESSURE.
      HX  - HEAT INDEX.         WCI  - WIND CHILL INDEX.

*  THESE STATIONS ARE NOT NWS OR FAA STATIONS AND ARE NOT UNDER
   NWS QUALITY CONTROL.

LAZ040-048-061>063-065-066-069-271800-
SOUTHEAST LOUISIANA

CITY           SKY/WX    TMP DP  RH WIND       PRES   REMARKS
N.O. AUDUBON     N/A     93  76  58 MISG        N/A  HX 106
N.O. INTL ARPT MOSUNNY   91  74  57 W9        30.10F HX 100
N.O. LAKEFRONT SUNNY     88  76  67 NW7       30.11F HX  99
N.O. DOWNTOWN* PTSUNNY   91  72  52 SW8       30.11S HX  98
SLIDELL        MOSUNNY   90  72  55 W7        30.09F HX  97
BATON ROUGE    PTSUNNY   90  75  61 W10       30.10F HX 100
BOOTHVILLE     MOSUNNY   87  75  67 SW10      30.12F HX  96
BELLE CHASSE   PTSUNNY   90  73  57 S7        30.10F HX  98
BOGALUSA*      NOT AVBL
GALLIANO*      NOT AVBL
NEW ROADS*     NOT AVBL
GONZALES*      NOT AVBL
HAMMOND*       NOT AVBL
HOUMA*         MOSUNNY   91  73  55 SW5       30.11S HX 100
PORT FOURCHON* SUNNY     88  77  70 SW8G14    30.14S HX 100

$$

LAZ041-044-053-054-271800-
SOUTHWEST LOUISIANA

CITY           SKY/WX    TMP DP  RH WIND       PRES   REMARKS
LAKE CHARLES   MOSUNNY   90  74  59 SW8       30.09F HX  99
LAFAYETTE      PTSUNNY   89  76  65 W9        30.10F HX 100
PATTERSON      MOSUNNY   90  77  66 W9        30.15F HX 102
SALT POINT       N/A     91  78  65 SW8       30.11S HX 106
NEW IBERIA     MOSUNNY   90  74  59 NW8       30.11S HX  99
CHENAULT AIRPK MOSUNNY   90  72  55 S8        30.10S HX  96

$$

LAZ027-028-271800-
CENTRAL LOUISIANA

CITY           SKY/WX    TMP DP  RH WIND       PRES   REMARKS
FORT POLK      MOSUNNY   89  74  60 W9        30.10S HX  98
ALEXANDRIA INT SUNNY     91  74  57 VRB6      30.06F HX 100
ALEXANDRIA     SUNNY     92  73  53 VRB7      30.08F HX 100

$$

LAZ001-002-271800-
NORTHWEST LOUISIANA

CITY           SKY/WX    TMP DP  RH WIND       PRES   REMARKS
SHREVEPORT     SUNNY     90  74  59 SW8       30.05F HX  99
BARKSDALE AFB  SUNNY     90  73  56 SW9G16    30.06F HX  98
DTN SHREVEPORT SUNNY     90  73  57 W10       30.06F HX  98

$$

LAZ014-016-271800-
NORTHEAST LOUISIANA

CITY           SKY/WX    TMP DP  RH WIND       PRES   REMARKS
MONROE         SUNNY     91  73  55 VRB7      30.07F HX  99
TALLULAH       SUNNY     91  74  57 VRB6      30.07F HX 100

$$




USA.gov is the U.S. government's official web portal to all federal, state and local government web resources and services.